Flag for Colombia Weather past 2 weeks in Medellin, Colombia

Now
61 °F

Partly cloudy.


Feels Like: 61 °F
Forecast: 62 / 84 °F
Wind: No wind

Location: Rionegro / J. M. Cordova

Current Time: Sep 2, 2014 at 10:07:21 PM

Latest Report: Sep 2, 2014 at 9:00 PM


Visibility: N/A

Pressure: 30.30 "Hg

Humidity: 88%

Dew point: 57 °F

Location of MedellinLocation

Historic Weather in Medellin — Graph

°F

Medellin temperature yesterday

Maximum temperature yesterday: 75 °F (at 3:00 PM)
Minimum temperature yesterday: 50 °F (at 4:00 AM)
Average temperature yesterday: 62 °F

Past Weeks' High & Low Weather Summary

 TemperatureHumidityPressure
High75 °F (Sep 1, 3:00 PM)100% (Aug 23, 4:00 AM)30.39 "Hg (Aug 23, 4:00 AM)
Low48 °F (Aug 31, 6:00 AM)29% (Aug 30, 2:00 PM)30.14 "Hg (Aug 25, 4:00 PM)
Average62 °F76%30.28 "Hg
* Reported Aug 18 8:00 PM — Sep 2 8:00 PM, Medellin, Weather by CustomWeather, © 2014

Note: Actual official high and low records may vary slightly from our data, if they occured in-between our weather recording intervals... More about our weather records

Advertising

Medellin weather history for previous 24 hours

 ConditionsComfort  
Time TempWeatherWind HumidityBarometerVisibility
8:00 PM
Sep 2
63 °FPassing clouds.No wind83%30.27 "HgN/A
7:00 PM64 °FPassing clouds.5 mph73%30.25 "HgN/A
6:00 PM66 °FMild.3 mph64%30.21 "HgN/A
5:00 PM68 °FMore clouds than sun.9 mph56%30.20 "HgN/A
4:00 PM70 °FOvercast.8 mph53%30.20 "HgN/A
3:00 PM70 °FOvercast.10 mph50%30.21 "HgN/A
2:00 PM72 °FMore clouds than sun.12 mph53%30.24 "HgN/A
1:00 PM70 °FMore clouds than sun.9 mph60%30.27 "HgN/A
12:00 PM68 °FBroken clouds.No wind64%30.29 "HgN/A
11:00 AM66 °FBroken clouds.No wind73%30.32 "HgN/A
10:00 AM61 °FPartly sunny.No wind88%30.34 "Hg5 mi
9:00 AM59 °FDrizzle. Fog.No wind94%30.32 "Hg2 mi
8:00 AM57 °FFog.No wind94%30.28 "Hg2 mi
7:00 AM55 °FFog.No wind94%30.27 "Hg2 mi
6:00 AM55 °FFog.No wind94%30.25 "Hg2 mi
5:00 AM55 °FFog.No wind94%30.23 "Hg2 mi
4:00 AM55 °FFog.No wind94%30.25 "Hg4 mi
3:00 AM57 °FFog.No wind100%30.25 "Hg4 mi
2:00 AM59 °FFog.No wind94%30.26 "Hg4 mi
1:00 AM59 °FFog.No wind94%30.28 "Hg5 mi
12:00 AM59 °FPassing clouds.2 mph88%30.30 "HgN/A
11:00 PM
Sep 1
59 °FPassing clouds.2 mph88%30.31 "HgN/A
10:00 PM61 °FPassing clouds.5 mph88%30.32 "HgN/A
Weather by CustomWeather, © 2014

See weather overviewHow to use our weather pages